contact:dominique.lefevre@mio.osupytheas.fr, maurice.libes@osupytheas.fr, didier.mallarino@osupytheas.fr
Project:EMSO http://www.emso-fr.org/EMSO-France
Depth: 2436.0 m
Title:EMSO Ligure Ouest : Data MII capteur AQUADOPP
Date,Latitude,Longitude,X_East,Y_North,Z_Up,Amplitude_X,Amplitude_Y,Amplitude_Z,Batterie,SoundSpeed,Heading,Pitch,Roll,Pressure,TIS,Speed,Direction
, degrees North, degrees East, m.s-1, m.s-1,m.s-1, 1, 1, 1, Volt, m.s-1, degree, degree, degree, dbar, degree_C, m.s-1, degree
2020-05-18T00:04:03,42.805,6.029,0.0,0.013,0.009,104.0,106.0,100.0,13.3,1505.3,325.9,-0.7,1.8,2470.334,13.31,0.013,0.0
2020-05-18T00:07:03,42.805,6.029,0.006,0.016,-0.023,103.0,107.0,100.0,13.4,1505.3,325.8,-0.7,1.8,2470.281,13.32,0.017,20.6
2020-05-18T00:10:03,42.805,6.029,0.03,0.016,0.006,102.0,104.0,102.0,13.4,1505.3,327.2,-0.7,1.8,2470.307,13.33,0.034,61.9
2020-05-18T00:13:03,42.805,6.029,-0.009,-0.002,-0.014,103.0,105.0,101.0,13.3,1505.3,326.6,-0.7,1.8,2470.32,13.33,0.009,257.5
2020-05-18T00:16:03,42.805,6.029,-0.035,0.039,-0.054,104.0,106.0,100.0,13.4,1505.3,328.0,-0.7,1.8,2470.299,13.33,0.052,318.1
2020-05-18T00:19:03,42.805,6.029,-0.027,0.017,-0.049,102.0,106.0,101.0,13.4,1505.3,325.3,-0.7,1.8,2470.33,13.33,0.031,302.2
2020-05-18T00:22:03,42.805,6.029,-0.036,0.01,-0.079,103.0,106.0,102.0,13.4,1505.3,326.3,-0.7,1.9,2470.314,13.33,0.037,285.5
2020-05-18T00:25:03,42.805,6.029,-0.031,0.003,-0.068,104.0,107.0,101.0,13.4,1505.3,326.5,-0.7,1.9,2470.316,13.33,0.031,275.5
2020-05-18T00:28:03,42.805,6.029,-0.025,-0.001,-0.058,104.0,107.0,101.0,13.4,1505.3,324.8,-0.7,1.8,2470.314,13.33,0.025,267.7
2020-05-18T00:31:03,42.805,6.029,-0.038,0.014,-0.063,104.0,107.0,100.0,13.3,1505.3,324.8,-0.7,1.8,2470.279,13.33,0.04,290.2
2020-05-18T00:34:03,42.805,6.029,-0.033,0.003,-0.058,103.0,107.0,102.0,13.4,1505.3,325.1,-0.7,1.8,2470.301,13.33,0.033,275.2
2020-05-18T00:37:02,42.805,6.029,-0.022,0.0,-0.047,107.0,107.0,100.0,13.4,1505.4,326.7,-0.7,1.8,2470.299,13.34,0.022,270.0
2020-05-18T00:40:03,42.805,6.029,-0.026,-0.012,-0.052,103.0,108.0,102.0,13.3,1505.4,327.2,-0.7,1.8,2470.293,13.34,0.028,245.2
2020-05-18T00:43:03,42.805,6.029,-0.044,-0.016,-0.068,103.0,107.0,103.0,13.3,1505.4,328.6,-0.7,1.8,2470.323,13.34,0.046,250.0
2020-05-18T00:46:03,42.805,6.029,-0.017,0.009,-0.055,104.0,109.0,101.0,13.3,1505.4,326.7,-0.7,1.8,2470.344,13.34,0.019,297.9
2020-05-18T00:49:03,42.805,6.029,-0.02,0.003,-0.05,105.0,108.0,101.0,13.4,1505.4,325.6,-0.7,1.8,2470.344,13.34,0.02,278.5
2020-05-18T00:52:03,42.805,6.029,0.021,0.011,0.0,104.0,106.0,101.0,13.4,1505.4,326.5,-0.7,1.8,2470.295,13.34,0.023,62.4
2020-05-18T00:55:03,42.805,6.029,0.033,-0.008,-0.006,103.0,106.0,101.0,13.4,1505.4,324.2,-0.7,1.8,2470.338,13.34,0.033,103.6
2020-05-18T00:58:03,42.805,6.029,0.033,0.013,0.002,104.0,105.0,101.0,13.4,1505.4,326.3,-0.7,1.8,2470.324,13.34,0.035,68.5
2020-05-18T01:04:03,42.805,6.029,-0.001,0.005,-0.024,106.0,108.0,103.0,13.4,1505.3,325.9,-0.7,1.8,2470.372,13.31,0.005,348.7
2020-05-18T01:07:03,42.805,6.029,-0.014,0.004,-0.03,104.0,108.0,102.0,13.3,1505.3,323.8,-0.7,1.8,2470.354,13.32,0.014,285.9
2020-05-18T01:10:03,42.805,6.029,-0.018,0.0,-0.047,104.0,108.0,101.0,13.4,1505.3,324.8,-0.7,1.9,2470.322,13.33,0.018,270.0
2020-05-18T01:13:03,42.805,6.029,-0.032,-0.009,-0.052,103.0,109.0,102.0,13.4,1505.3,325.3,-0.7,1.8,2470.351,13.33,0.033,254.3
2020-05-18T01:16:03,42.805,6.029,-0.042,0.01,-0.039,104.0,106.0,101.0,13.4,1505.3,323.2,-0.7,1.8,2470.316,13.33,0.043,283.4
2020-05-18T01:19:03,42.805,6.029,-0.007,-0.013,-0.057,103.0,107.0,102.0,13.4,1505.4,324.7,-0.7,1.8,2470.329,13.34,0.014,208.3
2020-05-18T01:22:03,42.805,6.029,-0.026,0.008,-0.061,102.0,107.0,102.0,13.4,1505.4,323.3,-0.7,1.8,2470.346,13.34,0.027,287.1
2020-05-18T01:25:03,42.805,6.029,-0.023,0.014,-0.064,104.0,107.0,99.0,13.4,1505.3,325.7,-0.7,1.8,2470.328,13.33,0.026,301.3
2020-05-18T01:28:03,42.805,6.029,-0.044,-0.02,-0.091,102.0,108.0,100.0,13.3,1505.3,326.4,-0.7,1.8,2470.333,13.33,0.048,245.6
2020-05-18T01:31:03,42.805,6.029,-0.035,-0.021,-0.077,103.0,108.0,102.0,13.4,1505.4,327.2,-0.7,1.8,2470.343,13.34,0.04,239.0
2020-05-18T01:34:03,42.805,6.029,-0.027,0.01,-0.059,103.0,108.0,101.0,13.3,1505.4,327.4,-0.7,1.8,2470.328,13.34,0.028,290.3
2020-05-18T01:37:03,42.805,6.029,-0.055,-0.014,-0.081,103.0,108.0,102.0,13.4,1505.4,328.4,-0.7,1.8,2470.347,13.34,0.056,255.7
2020-05-18T01:40:03,42.805,6.029,-0.034,0.013,-0.052,104.0,107.0,102.0,13.4,1505.4,323.5,-0.7,1.8,2470.336,13.34,0.036,290.9
2020-05-18T01:43:03,42.805,6.029,-0.016,-0.003,-0.033,104.0,107.0,101.0,13.4,1505.4,326.9,-0.7,1.8,2470.353,13.34,0.016,259.4
2020-05-18T01:46:03,42.805,6.029,-0.008,0.004,-0.03,103.0,109.0,100.0,13.4,1505.4,324.1,-0.7,1.8,2470.365,13.34,0.008,296.6
2020-05-18T01:49:03,42.805,6.029,0.005,0.001,-0.032,103.0,107.0,101.0,13.4,1505.4,326.6,-0.7,1.8,2470.375,13.34,0.005,78.7
2020-05-18T01:52:03,42.805,6.029,0.0,0.001,-0.017,104.0,105.0,101.0,13.3,1505.4,327.1,-0.8,1.9,2470.331,13.34,0.001,0.0
2020-05-18T01:55:03,42.805,6.029,0.064,0.025,0.041,102.0,105.0,101.0,13.3,1505.4,323.8,-0.7,1.8,2470.322,13.34,0.068,68.7
2020-05-18T01:58:03,42.805,6.029,0.027,0.01,0.011,103.0,106.0,101.0,13.3,1505.3,327.3,-0.7,1.8,2470.343,13.33,0.028,69.7
2020-05-18T02:04:03,42.805,6.029,0.032,0.0,-0.007,103.0,105.0,102.0,13.4,1505.3,325.1,-0.7,1.8,2470.365,13.31,0.032,90.0
2020-05-18T02:07:03,42.805,6.029,0.051,0.01,0.02,103.0,106.0,101.0,13.3,1505.3,327.9,-0.7,1.8,2470.373,13.32,0.051,78.9
2020-05-18T02:10:03,42.805,6.029,0.038,0.006,0.007,105.0,105.0,101.0,13.4,1505.3,327.0,-0.7,1.8,2470.348,13.33,0.038,81.0
2020-05-18T02:13:03,42.805,6.029,0.035,0.022,0.041,103.0,105.0,101.0,13.4,1505.3,327.0,-0.7,1.9,2470.365,13.33,0.041,57.8
2020-05-18T02:16:03,42.805,6.029,0.062,-0.001,-0.002,105.0,106.0,101.0,13.4,1505.3,327.0,-0.7,1.8,2470.407,13.33,0.062,90.9
2020-05-18T02:19:03,42.805,6.029,0.025,-0.002,-0.013,103.0,106.0,100.0,13.4,1505.3,328.2,-0.7,1.8,2470.392,13.33,0.025,94.6
2020-05-18T02:22:03,42.805,6.029,0.019,0.012,0.0,102.0,104.0,100.0,13.4,1505.3,323.0,-0.7,1.8,2470.387,13.33,0.022,57.7
2020-05-18T02:25:03,42.805,6.029,0.021,0.013,-0.001,102.0,105.0,102.0,13.4,1505.3,327.0,-0.7,1.9,2470.37,13.33,0.024,58.2
2020-05-18T02:28:03,42.805,6.029,0.006,0.0,-0.014,103.0,105.0,101.0,13.4,1505.3,325.3,-0.7,1.8,2470.385,13.33,0.006,90.0
2020-05-18T02:31:03,42.805,6.029,0.039,-0.01,0.033,103.0,105.0,102.0,13.4,1505.3,328.0,-0.7,1.8,2470.406,13.33,0.04,104.4
2020-05-18T02:34:03,42.805,6.029,0.032,0.003,-0.047,103.0,107.0,100.0,13.3,1505.3,326.2,-0.7,1.8,2470.384,13.33,0.032,84.6
2020-05-18T02:37:03,42.805,6.029,0.026,-0.005,-0.059,103.0,106.0,100.0,13.4,1505.3,322.7,-0.7,1.8,2470.401,13.33,0.026,100.9
2020-05-18T02:40:03,42.805,6.029,0.014,-0.004,-0.02,104.0,105.0,101.0,13.3,1505.3,326.9,-0.7,1.9,2470.366,13.33,0.014,105.9
2020-05-18T02:43:03,42.805,6.029,0.007,0.0,-0.03,102.0,106.0,100.0,13.3,1505.3,327.9,-0.7,1.8,2470.389,13.33,0.007,90.0
2020-05-18T02:46:03,42.805,6.029,0.028,0.014,-0.022,102.0,104.0,101.0,13.3,1505.3,326.2,-0.7,1.8,2470.387,13.33,0.031,63.4
2020-05-18T02:49:03,42.805,6.029,0.01,0.0,-0.03,102.0,104.0,100.0,13.3,1505.3,324.4,-0.7,1.8,2470.372,13.33,0.01,90.0
2020-05-18T02:52:03,42.805,6.029,-0.004,-0.006,-0.038,100.0,106.0,102.0,13.4,1505.3,328.4,-0.7,1.8,2470.393,13.33,0.007,213.7
2020-05-18T02:55:03,42.805,6.029,0.004,0.0,-0.04,103.0,104.0,100.0,13.4,1505.3,325.2,-0.7,1.9,2470.377,13.33,0.004,90.0
2020-05-18T02:58:03,42.805,6.029,0.004,0.011,-0.059,103.0,105.0,99.0,13.4,1505.3,324.8,-0.7,1.8,2470.38,13.33,0.011,20.0
2020-05-18T03:04:03,42.805,6.029,0.012,-0.022,-0.013,100.0,104.0,102.0,13.3,1505.3,324.6,-0.8,1.8,2470.424,13.31,0.025,151.4
2020-05-18T03:07:03,42.805,6.029,0.0,0.008,-0.017,101.0,104.0,100.0,13.3,1505.3,324.2,-0.7,1.8,2470.419,13.32,0.008,0.0
2020-05-18T03:10:03,42.805,6.029,0.0,-0.006,-0.02,103.0,103.0,100.0,13.4,1505.3,325.6,-0.7,1.8,2470.423,13.32,0.006,180.0
2020-05-18T03:13:03,42.805,6.029,-0.004,0.008,-0.05,103.0,103.0,100.0,13.4,1505.3,326.7,-0.7,1.9,2470.458,13.33,0.008,333.4
2020-05-18T03:16:03,42.805,6.029,-0.011,0.011,-0.043,103.0,103.0,100.0,13.4,1505.3,326.2,-0.7,1.8,2470.398,13.33,0.015,315.0
2020-05-18T03:19:03,42.805,6.029,-0.004,0.01,-0.044,101.0,103.0,101.0,13.4,1505.3,325.9,-0.7,1.8,2470.395,13.33,0.01,338.2
2020-05-18T03:22:03,42.805,6.029,-0.04,-0.009,-0.065,102.0,104.0,99.0,13.4,1505.3,328.1,-0.7,1.8,2470.438,13.33,0.041,257.3
2020-05-18T03:25:03,42.805,6.029,0.002,0.006,-0.032,102.0,105.0,102.0,13.3,1505.3,324.2,-0.7,1.8,2470.438,13.33,0.006,18.4
2020-05-18T03:28:03,42.805,6.029,-0.028,0.009,-0.061,102.0,103.0,100.0,13.4,1505.3,325.7,-0.7,1.8,2470.424,13.33,0.029,287.8
2020-05-18T03:31:03,42.805,6.029,0.012,0.007,-0.049,102.0,105.0,101.0,13.4,1505.3,323.1,-0.7,1.8,2470.433,13.33,0.013,59.7
2020-05-18T03:34:03,42.805,6.029,0.008,0.025,-0.024,102.0,105.0,101.0,13.4,1505.3,323.9,-0.7,1.8,2470.452,13.33,0.026,17.7
2020-05-18T03:37:03,42.805,6.029,0.016,-0.016,-0.039,103.0,104.0,101.0,13.4,1505.3,326.9,-0.7,1.9,2470.457,13.33,0.022,135.0
2020-05-18T03:40:03,42.805,6.029,0.028,-0.015,-0.016,101.0,106.0,100.0,13.4,1505.3,328.0,-0.7,1.8,2470.419,13.33,0.031,118.2
2020-05-18T03:43:03,42.805,6.029,-0.005,-0.003,-0.046,103.0,106.0,103.0,13.4,1505.3,326.0,-0.7,1.8,2470.412,13.33,0.005,239.0
2020-05-18T03:46:03,42.805,6.029,-0.009,0.02,-0.003,103.0,105.0,102.0,13.4,1505.3,326.5,-0.7,1.8,2470.441,13.33,0.021,335.8
2020-05-18T03:49:03,42.805,6.029,-0.012,0.0,-0.036,102.0,105.0,101.0,13.3,1505.3,323.0,-0.7,1.8,2470.414,13.33,0.012,270.0
2020-05-18T03:52:03,42.805,6.029,-0.014,0.007,-0.024,102.0,107.0,101.0,13.3,1505.3,323.5,-0.7,1.8,2470.42,13.33,0.015,296.6
2020-05-18T03:55:03,42.805,6.029,0.013,-0.001,-0.08,106.0,105.0,101.0,13.3,1505.3,323.5,-0.7,1.8,2470.421,13.33,0.013,94.4
2020-05-18T03:58:03,42.805,6.029,0.029,-0.017,-0.041,104.0,106.0,101.0,13.3,1505.3,328.4,-0.7,1.9,2470.418,13.33,0.033,120.4
2020-05-18T04:04:03,42.805,6.029,0.007,0.002,-0.045,104.0,105.0,101.0,13.4,1505.3,324.8,-0.7,1.8,2470.456,13.31,0.007,74.1
2020-05-18T04:07:03,42.805,6.029,0.011,-0.013,-0.057,103.0,105.0,101.0,13.4,1505.3,325.0,-0.7,1.9,2470.447,13.32,0.017,139.8
2020-05-18T04:10:03,42.805,6.029,0.033,0.006,-0.015,105.0,105.0,100.0,13.3,1505.3,323.9,-0.7,1.8,2470.43,13.32,0.033,79.7
2020-05-18T04:13:03,42.805,6.029,0.005,-0.003,-0.063,103.0,107.0,101.0,13.3,1505.3,323.4,-0.7,1.8,2470.444,13.32,0.005,121.0
2020-05-18T04:16:03,42.805,6.029,0.02,0.009,-0.001,102.0,106.0,102.0,13.3,1505.3,323.8,-0.7,1.9,2470.394,13.33,0.021,65.8
2020-05-18T04:19:03,42.805,6.029,0.023,0.0,-0.001,102.0,106.0,102.0,13.4,1505.3,327.1,-0.7,1.8,2470.459,13.33,0.023,90.0
2020-05-18T04:22:03,42.805,6.029,0.006,0.013,-0.005,103.0,105.0,101.0,13.3,1505.3,324.4,-0.7,1.8,2470.455,13.33,0.014,24.8
2020-05-18T04:25:03,42.805,6.029,0.008,-0.001,-0.015,103.0,107.0,101.0,13.3,1505.3,326.5,-0.7,1.8,2470.483,13.33,0.008,97.1
2020-05-18T04:28:03,42.805,6.029,0.02,-0.016,-0.005,103.0,106.0,100.0,13.4,1505.3,322.8,-0.7,1.8,2470.444,13.33,0.025,128.7
2020-05-18T04:31:03,42.805,6.029,0.036,0.002,0.012,103.0,106.0,101.0,13.3,1505.3,328.4,-0.7,1.8,2470.429,13.33,0.036,86.8
2020-05-18T04:34:03,42.805,6.029,0.042,0.0,0.006,102.0,106.0,100.0,13.4,1505.3,324.5,-0.7,1.8,2470.445,13.33,0.042,90.0
2020-05-18T04:37:03,42.805,6.029,0.014,0.005,-0.011,104.0,106.0,101.0,13.4,1505.3,324.5,-0.7,1.8,2470.445,13.33,0.014,70.4
2020-05-18T04:40:03,42.805,6.029,0.019,0.002,-0.026,103.0,106.0,101.0,13.4,1505.3,326.5,-0.7,1.8,2470.44,13.33,0.019,84.0
2020-05-18T04:43:03,42.805,6.029,0.021,-0.005,-0.024,103.0,106.0,101.0,13.4,1505.3,324.0,-0.7,1.8,2470.442,13.33,0.021,103.4
2020-05-18T04:46:03,42.805,6.029,0.018,0.0,-0.022,102.0,106.0,101.0,13.3,1505.3,327.7,-0.7,1.8,2470.41,13.33,0.018,90.0
2020-05-18T04:49:03,42.805,6.029,0.012,0.014,-0.019,104.0,106.0,100.0,13.3,1505.3,325.8,-0.7,1.8,2470.429,13.33,0.018,40.6
2020-05-18T04:52:03,42.805,6.029,0.023,-0.002,-0.032,102.0,106.0,100.0,13.4,1505.3,324.4,-0.7,1.8,2470.388,13.33,0.023,95.0
2020-05-18T04:55:03,42.805,6.029,-0.002,-0.004,-0.064,102.0,106.0,101.0,13.4,1505.3,325.1,-0.7,1.8,2470.399,13.33,0.004,206.6
2020-05-18T04:58:03,42.805,6.029,0.013,0.004,-0.028,103.0,106.0,101.0,13.4,1505.3,323.3,-0.7,1.8,2470.381,13.33,0.013,72.9
2020-05-18T05:04:03,42.805,6.029,-0.019,-0.021,-0.08,103.0,105.0,100.0,13.3,1505.3,323.0,-0.8,1.8,2470.435,13.31,0.028,222.1
2020-05-18T05:07:03,42.805,6.029,-0.02,-0.012,-0.056,105.0,106.0,101.0,13.4,1505.3,325.3,-0.7,1.8,2470.459,13.32,0.023,239.0
2020-05-18T05:10:03,42.805,6.029,-0.025,-0.002,-0.051,103.0,107.0,101.0,13.4,1505.3,323.5,-0.7,1.8,2470.434,13.32,0.025,265.4
2020-05-18T05:13:03,42.805,6.029,-0.008,0.007,-0.071,103.0,106.0,100.0,13.4,1505.3,325.6,-0.7,1.8,2470.421,13.33,0.01,311.2
2020-05-18T05:16:03,42.805,6.029,-0.01,0.005,-0.051,100.0,105.0,101.0,13.4,1505.3,328.1,-0.7,1.9,2470.418,13.33,0.011,296.6
2020-05-18T05:19:03,42.805,6.029,-0.004,0.008,-0.069,102.0,106.0,100.0,13.4,1505.3,326.5,-0.7,1.8,2470.439,13.33,0.008,333.4
2020-05-18T05:22:03,42.805,6.029,-0.009,-0.003,-0.068,101.0,106.0,101.0,13.4,1505.3,327.8,-0.7,1.8,2470.431,13.33,0.009,251.6
2020-05-18T05:25:03,42.805,6.029,0.001,-0.004,-0.028,105.0,106.0,100.0,13.4,1505.3,323.7,-0.7,1.8,2470.393,13.33,0.004,166.0
2020-05-18T05:28:03,42.805,6.029,0.029,-0.002,-0.009,102.0,106.0,100.0,13.4,1505.3,325.5,-0.7,1.8,2470.414,13.33,0.029,93.9
2020-05-18T05:31:03,42.805,6.029,0.045,0.009,-0.01,105.0,106.0,100.0,13.4,1505.3,325.9,-0.7,1.8,2470.443,13.33,0.045,78.7
2020-05-18T05:34:03,42.805,6.029,0.056,-0.008,0.001,102.0,106.0,100.0,13.4,1505.3,327.2,-0.7,1.8,2470.436,13.33,0.056,98.1
2020-05-18T05:37:03,42.805,6.029,0.044,0.003,0.006,102.0,106.0,101.0,13.4,1505.3,326.3,-0.7,1.8,2470.406,13.33,0.044,86.1
2020-05-18T05:40:03,42.805,6.029,0.022,0.013,-0.01,103.0,108.0,100.0,13.3,1505.3,326.7,-0.7,1.8,2470.43,13.33,0.025,59.4
2020-05-18T05:43:03,42.805,6.029,0.032,0.02,0.011,102.0,106.0,101.0,13.4,1505.3,324.1,-0.7,1.8,2470.364,13.33,0.037,58.0
2020-05-18T05:46:03,42.805,6.029,0.045,-0.01,-0.01,102.0,104.0,102.0,13.4,1505.3,327.6,-0.7,1.8,2470.367,13.33,0.046,102.5
2020-05-18T05:49:03,42.805,6.029,0.045,0.009,0.022,104.0,105.0,100.0,13.4,1505.3,323.3,-0.7,1.8,2470.407,13.33,0.045,78.7
2020-05-18T05:52:03,42.805,6.029,0.042,0.01,0.014,103.0,105.0,102.0,13.3,1505.3,328.8,-0.7,1.9,2470.413,13.33,0.043,76.6
2020-05-18T05:55:03,42.805,6.029,0.048,-0.016,-0.006,104.0,106.0,101.0,13.4,1505.3,323.8,-0.7,1.8,2470.369,13.33,0.05,108.4
2020-05-18T05:58:03,42.805,6.029,0.052,-0.008,-0.005,103.0,105.0,100.0,13.4,1505.3,326.5,-0.7,1.8,2470.368,13.33,0.052,98.7
2020-05-18T06:04:03,42.805,6.029,0.021,-0.017,-0.004,103.0,105.0,101.0,13.4,1505.3,328.1,-0.7,1.8,2470.42,13.31,0.027,129.0
2020-05-18T06:07:03,42.805,6.029,0.04,0.001,-0.021,103.0,106.0,102.0,13.4,1505.3,324.3,-0.7,1.9,2470.387,13.32,0.04,88.6
2020-05-18T06:10:03,42.805,6.029,0.017,-0.015,-0.031,103.0,104.0,101.0,13.4,1505.3,325.5,-0.7,1.8,2470.416,13.32,0.022,131.4
2020-05-18T06:13:03,42.805,6.029,-0.025,-0.018,-0.055,102.0,105.0,100.0,13.4,1505.3,324.4,-0.7,1.8,2470.38,13.32,0.03,234.2
2020-05-18T06:16:03,42.805,6.029,0.004,0.013,-0.053,104.0,105.0,101.0,13.4,1505.3,326.3,-0.7,1.8,2470.392,13.33,0.013,17.1
2020-05-18T06:19:03,42.805,6.029,0.005,-0.021,-0.021,106.0,104.0,102.0,13.3,1505.3,322.7,-0.7,1.8,2470.387,13.33,0.021,166.6
2020-05-18T06:22:03,42.805,6.029,0.0,0.01,-0.049,103.0,105.0,101.0,13.4,1505.3,324.5,-0.7,1.8,2470.428,13.33,0.01,0.0
2020-05-18T06:25:03,42.805,6.029,0.024,0.009,0.001,104.0,104.0,100.0,13.4,1505.3,325.8,-0.7,1.8,2470.377,13.33,0.025,69.4
2020-05-18T06:28:03,42.805,6.029,-0.02,-0.004,-0.029,104.0,106.0,100.0,13.3,1505.3,323.5,-0.7,1.8,2470.408,13.33,0.02,258.7
2020-05-18T06:31:03,42.805,6.029,0.024,0.015,-0.013,104.0,105.0,101.0,13.4,1505.3,324.7,-0.7,1.9,2470.325,13.33,0.028,58.0
2020-05-18T06:34:03,42.805,6.029,-0.004,-0.008,-0.06,103.0,105.0,101.0,13.4,1505.3,327.3,-0.7,1.8,2470.389,13.33,0.008,206.6
2020-05-18T06:37:03,42.805,6.029,0.002,0.0,-0.032,103.0,103.0,101.0,13.4,1505.3,323.9,-0.8,1.8,2470.35,13.33,0.002,90.0
2020-05-18T06:40:03,42.805,6.029,0.007,-0.004,-0.05,102.0,104.0,101.0,13.4,1505.3,328.7,-0.7,1.9,2470.349,13.33,0.008,119.7
2020-05-18T06:43:03,42.805,6.029,0.02,-0.019,-0.046,102.0,105.0,101.0,13.4,1505.3,324.9,-0.7,1.8,2470.372,13.33,0.027,133.5
2020-05-18T06:46:03,42.805,6.029,0.006,0.008,-0.049,103.0,105.0,101.0,13.4,1505.3,326.6,-0.7,1.8,2470.367,13.33,0.01,36.9
2020-05-18T06:49:03,42.805,6.029,-0.004,0.0,-0.057,103.0,105.0,101.0,13.4,1505.3,326.6,-0.7,1.8,2470.349,13.33,0.004,270.0
2020-05-18T06:52:03,42.805,6.029,-0.012,-0.009,-0.04,102.0,105.0,101.0,13.3,1505.3,324.7,-0.7,1.9,2470.393,13.33,0.015,233.1
2020-05-18T06:55:03,42.805,6.029,-0.012,-0.003,-0.05,102.0,106.0,101.0,13.4,1505.3,326.9,-0.7,1.8,2470.336,13.33,0.012,256.0
2020-05-18T06:58:03,42.805,6.029,0.0,-0.008,-0.046,103.0,106.0,101.0,13.4,1505.3,327.6,-0.7,1.8,2470.37,13.33,0.008,180.0
2020-05-18T07:04:03,42.805,6.029,-0.023,-0.015,-0.037,105.0,107.0,102.0,13.4,1505.3,323.5,-0.7,1.8,2470.428,13.31,0.027,236.9
2020-05-18T07:07:03,42.805,6.029,-0.008,-0.024,-0.05,104.0,106.0,102.0,13.4,1505.3,324.4,-0.7,1.8,2470.37,13.31,0.025,198.4
2020-05-18T07:10:03,42.805,6.029,-0.007,-0.004,-0.048,104.0,106.0,102.0,13.4,1505.3,322.8,-0.7,1.9,2470.333,13.32,0.008,240.3
2020-05-18T07:13:03,42.805,6.029,-0.027,0.003,-0.031,104.0,105.0,101.0,13.4,1505.3,324.1,-0.7,1.8,2470.405,13.32,0.027,276.3
2020-05-18T07:16:03,42.805,6.029,-0.021,-0.005,-0.023,105.0,106.0,100.0,13.3,1505.3,324.8,-0.7,1.8,2470.378,13.32,0.021,256.6
2020-05-18T07:19:03,42.805,6.029,0.013,-0.001,-0.008,105.0,104.0,101.0,13.4,1505.3,327.8,-0.7,1.8,2470.352,13.32,0.013,94.4
2020-05-18T07:22:03,42.805,6.029,0.009,0.003,-0.01,105.0,106.0,101.0,13.3,1505.3,325.9,-0.7,1.8,2470.344,13.33,0.009,71.6
2020-05-18T07:25:03,42.805,6.029,0.004,-0.005,-0.045,104.0,105.0,101.0,13.4,1505.3,327.1,-0.7,1.8,2470.35,13.33,0.006,141.3
2020-05-18T07:28:03,42.805,6.029,0.007,-0.02,-0.034,104.0,105.0,102.0,13.4,1505.3,326.6,-0.7,1.8,2470.362,13.33,0.021,160.7
2020-05-18T07:31:03,42.805,6.029,0.004,-0.024,-0.066,104.0,106.0,102.0,13.4,1505.3,326.5,-0.7,1.8,2470.338,13.33,0.024,170.5
2020-05-18T07:34:03,42.805,6.029,0.002,-0.004,-0.027,104.0,106.0,102.0,13.3,1505.3,327.9,-0.7,1.8,2470.41,13.33,0.004,153.4
2020-05-18T07:37:03,42.805,6.029,0.025,-0.002,-0.021,104.0,105.0,102.0,13.3,1505.3,325.0,-0.7,1.8,2470.364,13.33,0.025,94.6
2020-05-18T07:40:03,42.805,6.029,0.015,-0.015,-0.024,104.0,105.0,101.0,13.4,1505.3,326.3,-0.7,1.8,2470.371,13.33,0.021,135.0
2020-05-18T07:43:03,42.805,6.029,0.024,-0.005,-0.032,104.0,105.0,102.0,13.3,1505.3,324.3,-0.7,1.8,2470.349,13.33,0.024,101.8
2020-05-18T07:46:03,42.805,6.029,0.019,0.01,-0.004,103.0,104.0,102.0,13.4,1505.3,327.4,-0.7,1.8,2470.418,13.33,0.021,62.2
2020-05-18T07:49:03,42.805,6.029,0.009,-0.02,-0.039,105.0,105.0,101.0,13.3,1505.3,326.4,-0.7,1.9,2470.331,13.33,0.021,155.8
2020-05-18T07:52:03,42.805,6.029,0.023,0.001,-0.013,104.0,106.0,101.0,13.4,1505.3,325.3,-0.7,1.9,2470.35,13.33,0.023,87.5
2020-05-18T07:55:03,42.805,6.029,0.038,0.005,0.02,105.0,106.0,101.0,13.4,1505.3,326.3,-0.7,1.8,2470.304,13.33,0.038,82.5
2020-05-18T07:58:03,42.805,6.029,0.019,0.007,-0.006,104.0,105.0,102.0,13.4,1505.3,327.9,-0.7,1.8,2470.312,13.33,0.02,69.8
2020-05-18T08:04:03,42.805,6.029,0.019,0.005,-0.01,105.0,106.0,101.0,13.4,1505.3,326.8,-0.7,1.8,2470.365,13.31,0.019,75.3
2020-05-18T08:07:03,42.805,6.029,0.047,-0.013,-0.025,105.0,107.0,102.0,13.4,1505.3,328.2,-0.7,1.8,2470.33,13.31,0.048,105.5
2020-05-18T08:10:03,42.805,6.029,0.027,-0.005,-0.037,106.0,106.0,102.0,13.3,1505.3,327.7,-0.7,1.9,2470.337,13.32,0.027,100.5
2020-05-18T08:13:03,42.805,6.029,0.008,0.0,-0.013,104.0,106.0,103.0,13.4,1505.3,322.7,-0.7,1.8,2470.354,13.32,0.008,90.0
2020-05-18T08:16:03,42.805,6.029,0.033,-0.014,0.022,104.0,107.0,102.0,13.4,1505.3,326.1,-0.7,1.8,2470.36,13.32,0.035,113.0
2020-05-18T08:19:03,42.805,6.029,0.058,-0.019,0.007,104.0,106.0,101.0,13.3,1505.3,326.7,-0.7,1.9,2470.322,13.33,0.061,108.1
2020-05-18T08:22:03,42.805,6.029,0.0,-0.017,-0.002,104.0,106.0,103.0,13.4,1505.3,325.4,-0.7,1.9,2470.365,13.33,0.017,180.0
2020-05-18T08:25:03,42.805,6.029,0.013,-0.005,0.007,105.0,106.0,100.0,13.4,1505.3,326.4,-0.7,1.8,2470.326,13.33,0.013,111.0
2020-05-18T08:28:03,42.805,6.029,0.039,-0.008,0.002,103.0,106.0,101.0,13.3,1505.3,327.5,-0.7,1.8,2470.294,13.33,0.039,101.6
2020-05-18T08:31:03,42.805,6.029,0.016,-0.009,-0.046,103.0,104.0,102.0,13.4,1505.3,325.9,-0.8,1.8,2470.305,13.33,0.018,119.4
2020-05-18T08:34:03,42.805,6.029,0.028,-0.007,-0.002,106.0,107.0,101.0,13.3,1505.3,328.2,-0.7,1.8,2470.282,13.33,0.028,104.0
2020-05-18T08:37:03,42.805,6.029,0.066,-0.015,0.0,103.0,107.0,102.0,13.4,1505.3,324.9,-0.7,1.8,2470.299,13.33,0.067,102.8
2020-05-18T08:40:03,42.805,6.029,0.058,0.011,0.003,104.0,106.0,102.0,13.4,1505.3,325.9,-0.7,1.8,2470.271,13.33,0.059,79.3
2020-05-18T08:43:03,42.805,6.029,0.034,-0.014,0.001,103.0,108.0,102.0,13.4,1505.3,325.1,-0.7,1.9,2470.324,13.33,0.036,112.4
2020-05-18T08:46:03,42.805,6.029,0.028,0.016,-0.019,105.0,106.0,103.0,13.4,1505.3,325.5,-0.7,1.8,2470.262,13.33,0.032,60.3
2020-05-18T08:49:03,42.805,6.029,0.025,0.001,0.005,105.0,108.0,102.0,13.4,1505.3,324.8,-0.7,1.8,2470.288,13.33,0.025,87.7
2020-05-18T08:52:03,42.805,6.029,0.041,-0.021,-0.001,104.0,106.0,101.0,13.4,1505.3,323.7,-0.7,1.8,2470.285,13.33,0.046,117.1
2020-05-18T08:55:03,42.805,6.029,0.007,0.007,0.004,104.0,106.0,103.0,13.4,1505.3,325.3,-0.7,1.8,2470.278,13.33,0.009,45.0
2020-05-18T08:58:03,42.805,6.029,0.035,-0.005,-0.002,103.0,105.0,101.0,13.4,1505.3,325.5,-0.7,1.9,2470.296,13.33,0.035,98.1
2020-05-18T09:04:03,42.805,6.029,0.04,-0.021,-0.011,103.0,105.0,101.0,13.4,1505.3,327.1,-0.7,1.8,2470.324,13.31,0.045,117.7
2020-05-18T09:07:03,42.805,6.029,0.036,0.011,0.014,103.0,106.0,102.0,13.4,1505.3,323.0,-0.7,1.8,2470.314,13.31,0.037,73.0
2020-05-18T09:10:03,42.805,6.029,0.013,-0.012,-0.007,105.0,108.0,100.0,13.4,1505.3,326.1,-0.7,1.8,2470.321,13.32,0.017,132.7
2020-05-18T09:13:03,42.805,6.029,0.013,-0.01,-0.02,103.0,106.0,102.0,13.4,1505.3,324.5,-0.7,1.8,2470.287,13.32,0.016,127.6
2020-05-18T09:16:03,42.805,6.029,0.028,-0.007,-0.001,104.0,105.0,102.0,13.4,1505.3,326.8,-0.7,1.8,2470.292,13.32,0.028,104.0
2020-05-18T09:19:03,42.805,6.029,0.031,-0.011,-0.016,104.0,104.0,101.0,13.4,1505.3,323.9,-0.7,1.8,2470.297,13.32,0.032,109.5
2020-05-18T09:22:03,42.805,6.029,0.022,-0.008,-0.008,104.0,106.0,100.0,13.4,1505.3,325.2,-0.8,1.8,2470.336,13.32,0.023,110.0
2020-05-18T09:25:03,42.805,6.029,0.014,0.0,-0.013,105.0,106.0,102.0,13.4,1505.3,328.0,-0.7,1.8,2470.293,13.33,0.014,90.0
2020-05-18T09:28:03,42.805,6.029,-0.02,-0.012,-0.064,104.0,106.0,101.0,13.4,1505.3,326.5,-0.7,1.8,2470.287,13.33,0.023,239.0
2020-05-18T09:31:03,42.805,6.029,-0.01,-0.011,-0.066,104.0,107.0,101.0,13.4,1505.3,327.0,-0.7,1.8,2470.281,13.33,0.014,222.3
2020-05-18T09:34:03,42.805,6.029,-0.017,-0.01,-0.03,104.0,108.0,101.0,13.4,1505.3,323.2,-0.7,1.8,2470.297,13.33,0.019,239.5
2020-05-18T09:37:03,42.805,6.029,0.017,-0.014,-0.019,105.0,107.0,102.0,13.4,1505.3,327.9,-0.7,1.8,2470.266,13.33,0.022,129.5
2020-05-18T09:40:03,42.805,6.029,0.033,-0.006,-0.015,104.0,106.0,101.0,13.4,1505.3,327.0,-0.7,1.8,2470.26,13.33,0.033,100.3
2020-05-18T09:43:03,42.805,6.029,-0.036,-0.021,-0.063,104.0,107.0,100.0,13.4,1505.3,323.9,-0.7,1.9,2470.288,13.33,0.041,239.7
2020-05-18T09:46:03,42.805,6.029,0.047,-0.024,-0.014,104.0,107.0,101.0,13.4,1505.3,328.0,-0.7,1.8,2470.288,13.33,0.052,117.0
2020-05-18T09:49:03,42.805,6.029,-0.006,-0.03,-0.029,104.0,107.0,101.0,13.3,1505.3,325.8,-0.7,1.8,2470.268,13.33,0.03,191.3
2020-05-18T09:52:03,42.805,6.029,0.004,-0.009,-0.064,105.0,107.0,101.0,13.4,1505.3,327.8,-0.7,1.9,2470.259,13.33,0.009,156.0
2020-05-18T09:55:03,42.805,6.029,0.029,-0.012,-0.029,105.0,107.0,102.0,13.4,1505.3,326.0,-0.7,1.9,2470.29,13.33,0.031,112.5
2020-05-18T09:58:03,42.805,6.029,0.039,-0.002,-0.019,103.0,106.0,101.0,13.4,1505.3,327.2,-0.7,1.8,2470.311,13.33,0.039,92.9